OK,66,45,1046,66,2014-10-01T01:40:00,0,28072816,189967
OK,66,45,1046,66,2014-10-01T01:45:00,0,28073263,189967
OK,66,45,1046,66,2014-10-01T01:50:00,0,28073711,189967
OK,66,45,1046,66,2014-10-01T01:55:00,0,28074029,189967
OK,66,45,1046,66,2014-10-01T02:05:00,0,28074918,189967
OK,66,45,1046,66,2014-10-01T02:10:00,0,28075367,189967
OK,66,45,1046,66,2014-10-01T02:15:00,0,28075816,189967
OK,66,45,1046,66,2014-10-01T02:20:00,0,28076199,189967
OK,66,45,1046,66,2014-10-01T02:25:00,0,28076648,189967
OK,66,45,1046,66,2014-10-01T02:30:00,0,28077097,189967
OK,66,45,1046,66,2014-10-01T02:35:00,0,28077546,189967
OK,66,45,1046,66,2014-10-01T02:40:00,0,28077949,189967
OK,66,45,1046,66,2014-10-01T02:45:00,0,28078398,189967
OK,66,45,1046,66,2014-10-01T02:50:00,0,28078843,189967
OK,66,45,1046,66,2014-10-01T02:55:00,0,28079291,189967
OK,66,45,1046,66,2014-10-01T03:00:00,0,28079734,189967
OK,66,45,1046,66,2014-10-01T03:05:00,0,28080183,189967
OK,66,45,1046,66,2014-10-01T03:10:00,0,28080517,189967
OK,66,45,1046,66,2014-10-01T03:15:00,0,28080966,189967
OK,66,45,1046,66,2014-10-01T03:20:00,0,28081415,189967
OK,66,45,1046,66,2014-10-01T03:25:00,0,28081862,189967
OK,66,45,1046,66,2014-10-01T03:30:00,0,28082311,189967
OK,66,45,1046,66,2014-10-01T03:35:00,0,28082744,189967
OK,66,45,1046,66,2014-10-01T03:40:00,0,28083176,189967
OK,66,45,1046,66,2014-10-01T03:45:00,0,28083625,189967
OK,66,45,1046,66,2014-10-01T03:50:00,0,28084074,189967
OK,66,45,1046,66,2014-10-01T03:55:00,0,28084515,189967
OK,66,45,1046,66,2014-10-01T04:00:00,0,28084940,189967
OK,66,45,1046,66,2014-10-01T04:05:00,0,28085389,189967
OK,66,45,1046,66,2014-10-01T04:10:00,0,28085834,189967
OK,66,45,1046,66,2014-10-01T04:15:00,0,28086283,189967
OK,66,45,1046,66,2014-10-01T04:20:00,0,28086725,189967
OK,66,45,1046,66,2014-10-01T04:25:00,0,28087174,189967
OK,66,45,1046,66,2014-10-01T04:30:00,0,28087619,189967
OK,66,45,1046,66,2014-10-01T04:35:00,0,28088068,189967
OK,66,45,1046,66,2014-10-01T04:40:00,0,28088492,189967
OK,66,45,1046,66,2014-10-01T04:45:00,0,28088941,189967
OK,66,45,1046,66,2014-10-01T04:50:00,0,28089371,189967
OK,109,27,1046,109,2014-10-01T04:55:00,2,28089820,189967
OK,96,31,1046,96,2014-10-01T05:00:00,1,28090269,189967
OK,96,31,1046,96,2014-10-01T05:05:00,0,28090613,189967
OK,96,31,1046,96,2014-10-01T05:10:00,0,28091062,189967
OK,96,31,1046,96,2014-10-01T05:15:00,0,28091511,189967
OK,84,35,1046,84,2014-10-01T05:20:00,1,28091928,189967
OK,84,35,1046,84,2014-10-01T05:25:00,1,28092377,189967
OK,214,14,1046,214,2014-10-01T05:30:00,2,28092821,189967
OK,214,14,1046,214,2014-10-01T05:35:00,3,28093262,189967
OK,148,20,1046,148,2014-10-01T05:40:00,3,28093693,189967
OK,182,16,1046,182,2014-10-01T05:45:00,5,28094142,189967
OK,182,16,1046,182,2014-10-01T05:50:00,1,28094553,189967
OK,379,7,1046,379,2014-10-01T05:55:00,1,28094998,189967
OK,425,7,1046,425,2014-10-01T06:00:00,2,28095445,189967
OK,545,5,1046,545,2014-10-01T06:05:00,2,28095894,189967
OK,414,7,1046,414,2014-10-01T06:10:00,1,28096307,189967
OK,373,8,1046,373,2014-10-01T06:15:00,3,28096756,189967
OK,330,9,1046,330,2014-10-01T06:20:00,2,28097190,189967
OK,139,21,1046,139,2014-10-01T06:25:00,1,28097639,189967
OK,139,21,1046,139,2014-10-01T06:30:00,1,28098088,189967
OK,139,21,1046,139,2014-10-01T06:35:00,0,28098525,189967
OK,152,19,1046,152,2014-10-01T06:40:00,2,28098969,189967
OK,152,19,1046,152,2014-10-01T06:45:00,4,28099417,189967
OK,196,15,1046,196,2014-10-01T06:50:00,2,28099760,189967
OK,257,11,1046,257,2014-10-01T06:55:00,0,28100209,189967
OK,121,24,1046,121,2014-10-01T07:00:00,4,28100516,189967
OK,127,23,1046,127,2014-10-01T07:10:00,0,28101336,189967
OK,127,23,1046,127,2014-10-01T07:20:00,0,28102221,189967
OK,114,26,1046,114,2014-10-01T07:25:00,1,28102670,189967
OK,112,26,1046,112,2014-10-01T07:30:00,2,28103098,189967
OK,84,35,1046,84,2014-10-01T07:35:00,3,28103544,189967
OK,73,41,1046,73,2014-10-01T07:40:00,3,28103989,189967
OK,73,41,1046,73,2014-10-01T07:45:00,1,28104434,189967
OK,73,41,1046,73,2014-10-01T07:50:00,0,28104875,189967
OK,73,41,1046,73,2014-10-01T07:55:00,0,28105320,189967
OK,112,26,1046,112,2014-10-01T08:00:00,1,28105760,189967
OK,112,26,1046,112,2014-10-01T08:05:00,1,28106209,189967
OK,98,30,1046,98,2014-10-01T08:10:00,4,28106646,189967
OK,100,30,1046,100,2014-10-01T08:15:00,3,28107052,189967
OK,105,28,1046,105,2014-10-01T08:20:00,4,28107484,189967
OK,110,27,1046,110,2014-10-01T08:25:00,4,28107933,189967
OK,99,30,1046,99,2014-10-01T08:30:00,3,28108372,189967
OK,99,30,1046,99,2014-10-01T08:35:00,3,28108821,189967
OK,104,29,1046,104,2014-10-01T08:40:00,1,28109249,189967
OK,100,30,1046,100,2014-10-01T08:45:00,2,28109698,189967
OK,108,27,1046,108,2014-10-01T08:50:00,3,28110041,189967
OK,77,39,1046,77,2014-10-01T09:00:00,5,28110913,189967
OK,91,33,1046,91,2014-10-01T09:05:00,6,28111362,189967
OK,106,28,1046,106,2014-10-01T09:10:00,3,28111791,189967
OK,123,24,1046,123,2014-10-01T09:15:00,1,28112240,189967
OK,59,51,1046,59,2014-10-01T09:20:00,1,28112581,189967
OK,113,26,1046,113,2014-10-01T09:30:00,3,28113454,189967
OK,75,40,1046,75,2014-10-01T09:35:00,3,28113903,189967
OK,93,32,1046,93,2014-10-01T09:40:00,2,28114335,189967
OK,124,24,1046,124,2014-10-01T09:45:00,0,28114784,189967
OK,124,24,1046,124,2014-10-01T09:50:00,0,28115138,189967
OK,95,31,1046,95,2014-10-01T10:00:00,5,28115999,189967
OK,95,31,1046,95,2014-10-01T10:05:00,7,28116448,189967
OK,92,32,1046,92,2014-10-01T10:10:00,3,28116856,189967
OK,75,40,1046,75,2014-10-01T10:15:00,2,28117305,189967
OK,102,29,1046,102,2014-10-01T10:20:00,3,28117730,189967
OK,102,29,1046,102,2014-10-01T10:25:00,3,28118179,189967
OK,108,27,1046,108,2014-10-01T10:30:00,5,28118624,189967
OK,107,28,1046,107,2014-10-01T10:35:00,3,28119071,189967
OK,81,37,1046,81,2014-10-01T10:40:00,2,28119515,189967
OK,72,41,1046,72,2014-10-01T10:45:00,1,28119963,189967
OK,88,34,1046,88,2014-10-01T10:50:00,2,28120411,189967
OK,174,17,1046,174,2014-10-01T10:55:00,4,28120860,189967
OK,140,21,1046,140,2014-10-01T11:00:00,3,28121243,189967
OK,99,30,1046,99,2014-10-01T11:05:00,4,28121692,189967
OK,72,41,1046,72,2014-10-01T11:10:00,4,28122130,189967
OK,70,43,1046,70,2014-10-01T11:15:00,1,28122579,189967
OK,107,28,1046,107,2014-10-01T11:20:00,1,28123020,189967
OK,105,28,1046,105,2014-10-01T11:25:00,3,28123469,189967
OK,68,44,1046,68,2014-10-01T11:30:00,3,28123901,189967
OK,60,50,1046,60,2014-10-01T11:35:00,1,28124350,189967
OK,60,50,1046,60,2014-10-01T11:40:00,1,28124752,189967
OK,61,49,1046,61,2014-10-01T11:45:00,3,28125201,189967
OK,61,49,1046,61,2014-10-01T11:50:00,3,28125630,189967
OK,61,49,1046,61,2014-10-01T11:55:00,0,28126079,189967
OK,61,49,1046,61,2014-10-01T12:00:00,0,28126431,189967
OK,100,30,1046,100,2014-10-01T12:10:00,1,28127329,189967
OK,70,43,1046,70,2014-10-01T12:15:00,2,28127778,189967
OK,70,43,1046,70,2014-10-01T12:20:00,2,28128206,189967
OK,70,43,1046,70,2014-10-01T12:25:00,1,28128655,189967
OK,70,43,1046,70,2014-10-01T12:30:00,1,28129090,189967
OK,148,20,1046,148,2014-10-01T12:35:00,3,28129539,189967
OK,147,20,1046,147,2014-10-01T12:40:00,6,28129973,189967
OK,141,21,1046,141,2014-10-01T12:45:00,3,28130422,189967
OK,176,17,1046,176,2014-10-01T12:50:00,2,28130850,189967
OK,176,17,1046,176,2014-10-01T12:55:00,2,28131299,189967
OK,176,17,1046,176,2014-10-01T13:00:00,0,28131736,189967
OK,176,17,1046,176,2014-10-01T13:05:00,0,28132185,189967
OK,176,17,1046,176,2014-10-01T13:10:00,0,28132623,189967
OK,154,19,1046,154,2014-10-01T13:15:00,1,28133070,189967
OK,154,19,1046,154,2014-10-01T13:20:00,1,28133508,189967
OK,113,26,1046,113,2014-10-01T13:25:00,2,28133957,189967
OK,156,19,1046,156,2014-10-01T13:30:00,5,28134396,189967
OK,164,18,1046,164,2014-10-01T13:35:00,4,28134845,189967
OK,143,21,1046,143,2014-10-01T13:40:00,1,28135264,189967
OK,104,29,1046,104,2014-10-01T13:45:00,3,28135713,189967
OK,98,30,1046,98,2014-10-01T13:50:00,4,28136150,189967
OK,92,32,1046,92,2014-10-01T13:55:00,1,28136599,189967
OK,66,45,1046,66,2014-10-01T14:00:00,1,28137039,189967
OK,66,45,1046,66,2014-10-01T14:05:00,1,28137488,189967
OK,97,31,1046,97,2014-10-01T14:10:00,2,28137922,189967
OK,138,21,1046,138,2014-10-01T14:15:00,1,28138371,189967
OK,143,21,1046,143,2014-10-01T14:20:00,3,28138799,189967
OK,159,18,1046,159,2014-10-01T14:25:00,5,28139248,189967
OK,154,19,1046,154,2014-10-01T14:30:00,2,28139659,189967
OK,154,19,1046,154,2014-10-01T14:35:00,0,28140108,189967
OK,319,9,1046,319,2014-10-01T14:40:00,2,28140550,189967
OK,319,9,1046,319,2014-10-01T14:45:00,3,28140999,189967
OK,367,8,1046,367,2014-10-01T14:50:00,2,28141425,189967
OK,415,7,1046,415,2014-10-01T14:55:00,1,28141874,189967
OK,245,12,1046,245,2014-10-01T15:00:00,1,28142302,189967
OK,245,12,1046,245,2014-10-01T15:05:00,1,28142751,189967
OK,346,8,1046,346,2014-10-01T15:10:00,1,28143178,189967
OK,346,8,1046,346,2014-10-01T15:15:00,1,28143627,189967
OK,209,14,1046,209,2014-10-01T15:20:00,3,28144075,189967
OK,209,14,1046,209,2014-10-01T15:25:00,3,28144524,189967
OK,148,20,1046,148,2014-10-01T15:30:00,2,28144945,189967
OK,132,22,1046,132,2014-10-01T15:35:00,1,28145359,189967
OK,132,22,1046,132,2014-10-01T15:40:00,0,28145808,189967
OK,119,25,1046,119,2014-10-01T15:45:00,1,28146257,189967
OK,119,25,1046,119,2014-10-01T15:50:00,1,28146706,189967
OK,77,39,1046,77,2014-10-01T15:55:00,3,28147114,189967
OK,78,38,1046,78,2014-10-01T16:00:00,4,28147558,189967
OK,102,29,1046,102,2014-10-01T16:05:00,2,28148007,189967
OK,102,29,1046,102,2014-10-01T16:10:00,1,28148408,189967
OK,102,29,1046,102,2014-10-01T16:20:00,0,28149296,189967
OK,102,29,1046,102,2014-10-01T16:25:00,0,28149745,189967
OK,68,44,1046,68,2014-10-01T16:30:00,1,28150171,189967
OK,83,36,1046,83,2014-10-01T16:35:00,4,28150620,189967
OK,104,29,1046,104,2014-10-01T16:40:00,4,28151038,189967
OK,121,24,1046,121,2014-10-01T16:45:00,1,28151487,189967
OK,121,24,1046,121,2014-10-01T16:50:00,0,28151936,189967
OK,121,24,1046,121,2014-10-01T17:00:00,0,28152385,189967
OK,121,24,1046,121,2014-10-01T17:05:00,0,28152831,189967
OK,121,24,1046,121,2014-10-01T17:10:00,0,28153278,189967
OK,95,31,1046,95,2014-10-01T17:15:00,2,28153727,189967
OK,95,31,1046,95,2014-10-01T17:20:00,2,28154137,189967
OK,74,40,1046,74,2014-10-01T17:25:00,0,28154586,189967
OK,61,49,1046,61,2014-10-01T17:30:00,1,28155028,189967
OK,65,46,1046,65,2014-10-01T17:35:00,2,28155476,189967
OK,69,43,1046,69,2014-10-01T17:40:00,1,28155894,189967
OK,69,43,1046,69,2014-10-01T17:45:00,0,28156343,189967
OK,101,29,1046,101,2014-10-01T17:50:00,1,28156791,189967
OK,82,36,1046,82,2014-10-01T17:55:00,2,28157230,189967
OK,64,47,1046,64,2014-10-01T18:00:00,1,28157660,189967
OK,64,47,1046,64,2014-10-01T18:05:00,0,28158108,189967
OK,64,47,1046,64,2014-10-01T18:10:00,0,28158552,189967
OK,64,47,1046,64,2014-10-01T18:15:00,0,28158998,189967
OK,64,47,1046,64,2014-10-01T18:20:00,0,28159444,189967
OK,64,47,1046,64,2014-10-01T18:25:00,0,28159779,189967
OK,64,47,1046,64,2014-10-01T18:35:00,0,28160677,189967
OK,64,47,1046,64,2014-10-01T18:40:00,0,28161115,189967
OK,64,47,1046,64,2014-10-01T18:45:00,0,28161564,189967
OK,97,31,1046,97,2014-10-01T18:50:00,2,28161981,189967
OK,97,31,1046,97,2014-10-01T18:55:00,2,28162430,189967
OK,97,31,1046,97,2014-10-01T19:00:00,0,28162824,189967
OK,97,31,1046,97,2014-10-01T19:05:00,0,28163263,189967
OK,97,31,1046,97,2014-10-01T19:10:00,0,28163711,189967
OK,97,31,1046,97,2014-10-01T19:15:00,0,28164160,189967
OK,97,31,1046,97,2014-10-01T19:20:00,0,28164591,189967
OK,97,31,1046,97,2014-10-01T19:25:00,0,28165040,189967
OK,97,31,1046,97,2014-10-01T19:30:00,0,28165465,189967
OK,97,31,1046,97,2014-10-01T19:35:00,0,28165913,189967
OK,97,31,1046,97,2014-10-01T19:40:00,0,28166354,189967
OK,97,31,1046,97,2014-10-01T19:45:00,0,28166716,189967
OK,97,31,1046,97,2014-10-01T19:50:00,0,28167165,189967
OK,105,28,1046,105,2014-10-01T19:55:00,1,28167594,189967
OK,105,28,1046,105,2014-10-01T20:00:00,1,28168027,189967
OK,105,28,1046,105,2014-10-01T20:05:00,0,28168476,189967
OK,95,31,1046,95,2014-10-01T20:10:00,1,28168921,189967
OK,76,39,1046,76,2014-10-01T20:15:00,2,28169370,189967
OK,57,52,1046,57,2014-10-01T20:20:00,1,28169818,189967
OK,57,52,1046,57,2014-10-01T20:25:00,0,28170244,189967
OK,57,52,1046,57,2014-10-01T20:30:00,0,28170689,189967
OK,57,52,1046,57,2014-10-01T20:35:00,0,28171137,189967
OK,57,52,1046,57,2014-10-01T20:40:00,0,28171574,189967
OK,57,52,1046,57,2014-10-01T20:45:00,0,28172020,189967
OK,57,52,1046,57,2014-10-01T20:50:00,0,28172468,189967
OK,57,52,1046,57,2014-10-01T20:55:00,0,28172914,189967
OK,57,52,1046,57,2014-10-01T21:00:00,0,28173360,189967
OK,57,52,1046,57,2014-10-01T21:05:00,0,28173809,189967
OK,57,52,1046,57,2014-10-01T21:10:00,0,28174250,189967
OK,57,52,1046,57,2014-10-01T21:15:00,0,28174699,189967
OK,57,52,1046,57,2014-10-01T21:20:00,0,28175125,189967
OK,57,52,1046,57,2014-10-01T21:25:00,0,28175521,189967
OK,57,52,1046,57,2014-10-01T21:30:00,0,28175970,189967
OK,57,52,1046,57,2014-10-01T21:35:00,0,28176419,189967
OK,57,52,1046,57,2014-10-01T21:40:00,0,28176868,189967
OK,57,52,1046,57,2014-10-01T21:45:00,0,28177224,189967
OK,57,52,1046,57,2014-10-01T21:50:00,0,28177664,189967
OK,57,52,1046,57,2014-10-01T21:55:00,0,28178110,189967
OK,57,52,1046,57,2014-10-01T22:00:00,0,28178559,189967
OK,57,52,1046,57,2014-10-01T22:05:00,0,28179006,189967
OK,57,52,1046,57,2014-10-01T22:10:00,0,28179440,189967
OK,57,52,1046,57,2014-10-01T22:15:00,0,28179883,189967
OK,57,52,1046,57,2014-10-01T22:20:00,0,28180330,189967
OK,57,52,1046,57,2014-10-01T22:25:00,0,28180728,189967
OK,57,52,1046,57,2014-10-01T22:30:00,0,28181177,189967
OK,57,52,1046,57,2014-10-01T22:35:00,0,28181601,189967
OK,57,52,1046,57,2014-10-01T22:40:00,0,28182049,189967
OK,57,52,1046,57,2014-10-01T22:45:00,0,28182496,189967
OK,57,52,1046,57,2014-10-01T22:50:00,0,28182945,189967
OK,57,52,1046,57,2014-10-01T22:55:00,0,28183362,189967
OK,57,52,1046,57,2014-10-01T23:00:00,0,28183795,189967
OK,57,52,1046,57,2014-10-01T23:05:00,0,28184240,189967
OK,57,52,1046,57,2014-10-01T23:10:00,0,28184689,189967
OK,57,52,1046,57,2014-10-01T23:15:00,0,28185124,189967
OK,57,52,1046,57,2014-10-01T23:20:00,0,28185572,189967
OK,57,52,1046,57,2014-10-01T23:25:00,0,28186003,189967
OK,57,52,1046,57,2014-10-01T23:30:00,0,28186395,189967
OK,57,52,1046,57,2014-10-01T23:40:00,0,28187242,189967
OK,57,52,1046,57,2014-10-01T23:55:00,0,28188574,189967
OK,57,52,1046,57,2014-10-02T00:05:00,0,28189459,189967
OK,57,52,1046,57,2014-10-02T00:10:00,0,28189881,189967
OK,57,52,1046,57,2014-10-02T00:15:00,0,28190330,189967
OK,57,52,1046,57,2014-10-02T00:20:00,0,28190683,189967
OK,57,52,1046,57,2014-10-02T00:30:00,0,28191581,189967
OK,57,52,1046,57,2014-10-02T00:35:00,0,28191887,189967
OK,57,52,1046,57,2014-10-02T00:45:00,0,28192769,189967
OK,57,52,1046,57,2014-10-02T00:50:00,0,28193213,189967
OK,57,52,1046,57,2014-10-02T00:55:00,0,28193580,189967
OK,57,52,1046,57,2014-10-02T01:05:00,0,28194478,189967
OK,57,52,1046,57,2014-10-02T01:10:00,0,28194927,189967
OK,57,52,1046,57,2014-10-02T01:15:00,0,28195163,189967
OK,57,52,1046,57,2014-10-02T01:25:00,0,28196061,189967
OK,57,52,1046,57,2014-10-02T01:30:00,0,28196345,189967
OK,57,52,1046,57,2014-10-02T01:35:00,0,28196794,189967
OK,57,52,1046,57,2014-10-02T01:40:00,0,28197217,189967
OK,57,52,1046,57,2014-10-02T01:45:00,0,28197666,189967
OK,57,52,1046,57,2014-10-02T01:50:00,0,28198114,189967
OK,57,52,1046,57,2014-10-02T01:55:00,0,28198562,189967
OK,57,52,1046,57,2014-10-02T02:00:00,0,28199011,189967
OK,57,52,1046,57,2014-10-02T02:05:00,0,28199383,189967
OK,57,52,1046,57,2014-10-02T02:10:00,0,28199825,189967
OK,57,52,1046,57,2014-10-02T02:15:00,0,28200267,189967
OK,57,52,1046,57,2014-10-02T02:20:00,0,28200710,189967
OK,57,52,1046,57,2014-10-02T02:25:00,0,28201159,189967
OK,57,52,1046,57,2014-10-02T02:30:00,0,28201590,189967
OK,57,52,1046,57,2014-10-02T02:45:00,0,28202488,189967
OK,57,52,1046,57,2014-10-02T02:50:00,0,28202930,189967
OK,57,52,1046,57,2014-10-02T02:55:00,0,28203378,189967
OK,57,52,1046,57,2014-10-02T03:00:00,0,28203813,189967
OK,57,52,1046,57,2014-10-02T03:10:00,0,28204262,189967
OK,57,52,1046,57,2014-10-02T03:25:00,0,28204711,189967
OK,57,52,1046,57,2014-10-02T03:30:00,0,28205160,189967
OK,57,52,1046,57,2014-10-02T03:35:00,0,28205588,189967
OK,57,52,1046,57,2014-10-02T03:40:00,0,28206035,189967
OK,57,52,1046,57,2014-10-02T03:45:00,0,28206418,189967
OK,57,52,1046,57,2014-10-02T03:55:00,0,28207316,189967
OK,57,52,1046,57,2014-10-02T04:00:00,0,28207735,189967
OK,57,52,1046,57,2014-10-02T04:05:00,0,28208184,189967
OK,57,52,1046,57,2014-10-02T04:10:00,0,28208611,189967
OK,57,52,1046,57,2014-10-02T04:15:00,0,28209060,189967
OK,67,45,1046,67,2014-10-02T04:20:00,1,28209498,189967
OK,57,52,1046,57,2014-10-02T04:25:00,0,28209947,189967
OK,57,52,1046,57,2014-10-02T04:30:00,0,28210370,189967
OK,57,52,1046,57,2014-10-02T04:35:00,0,28210819,189967
OK,56,53,1046,56,2014-10-02T04:40:00,2,28211244,189967
OK,58,52,1046,58,2014-10-02T04:45:00,0,28211688,189967
OK,58,52,1046,58,2014-10-02T04:50:00,0,28212066,189967
OK,58,52,1046,58,2014-10-02T05:00:00,0,28212944,189967
OK,58,52,1046,58,2014-10-02T05:05:00,0,28213393,189967
OK,58,52,1046,58,2014-10-02T05:10:00,0,28213831,189967
OK,125,24,1046,125,2014-10-02T05:15:00,0,28214280,189967
OK,125,24,1046,125,2014-10-02T05:20:00,0,28214693,189967
OK,110,27,1046,110,2014-10-02T05:25:00,1,28215142,189967
OK,110,27,1046,110,2014-10-02T05:30:00,0,28215558,189967
OK,110,27,1046,110,2014-10-02T05:35:00,0,28216007,189967
OK,110,27,1046,110,2014-10-02T05:40:00,0,28216346,189967
OK,110,27,1046,110,2014-10-02T05:45:00,0,28216786,189967
OK,110,27,1046,110,2014-10-02T05:50:00,0,28217233,189967
OK,195,15,1046,195,2014-10-02T05:55:00,0,28217682,189967
OK,195,15,1046,195,2014-10-02T06:00:00,0,28218121,189967
OK,195,15,1046,195,2014-10-02T06:05:00,0,28218570,189967
OK,195,15,1046,195,2014-10-02T06:10:00,0,28218990,189967
OK,375,8,1046,375,2014-10-02T06:15:00,4,28219439,189967
OK,283,10,1046,283,2014-10-02T06:20:00,3,28219812,189967
OK,274,11,1046,274,2014-10-02T06:30:00,7,28220695,189967
OK,205,14,1046,205,2014-10-02T06:35:00,6,28221144,189967
OK,191,15,1046,191,2014-10-02T06:40:00,2,28221525,189967
OK,189,15,1046,189,2014-10-02T06:45:00,1,28221811,189967
OK,214,14,1046,214,2014-10-02T07:00:00,1,28222405,189967
OK,92,32,1046,92,2014-10-02T07:10:00,4,28223285,189967
OK,94,32,1046,94,2014-10-02T07:15:00,3,28223720,189967
OK,107,28,1046,107,2014-10-02T07:20:00,0,28224168,189967
OK,117,25,1046,117,2014-10-02T07:25:00,0,28224523,189967
OK,88,34,1046,88,2014-10-02T07:35:00,2,28225421,189967
OK,88,34,1046,88,2014-10-02T07:40:00,2,28225743,189967
OK,99,30,1046,99,2014-10-02T07:50:00,2,28226633,189967
OK,106,28,1046,106,2014-10-02T07:55:00,3,28227082,189967
OK,106,28,1046,106,2014-10-02T08:00:00,3,28227497,189967
OK,58,52,1046,58,2014-10-02T08:05:00,2,28227946,189967
OK,58,52,1046,58,2014-10-02T08:10:00,0,28228305,189967
OK,123,24,1046,123,2014-10-02T08:20:00,1,28229164,189967
OK,114,26,1046,114,2014-10-02T08:25:00,1,28229613,189967
OK,114,26,1046,114,2014-10-02T08:30:00,1,28229963,189967
OK,101,29,1046,101,2014-10-02T08:40:00,0,28230778,189967
OK,101,29,1046,101,2014-10-02T08:45:00,0,28231226,189967
OK,100,30,1046,100,2014-10-02T08:50:00,2,28231650,189967
OK,100,30,1046,100,2014-10-02T08:55:00,0,28232099,189967
OK,107,28,1046,107,2014-10-02T09:00:00,2,28232441,189967
OK,90,33,1046,90,2014-10-02T09:10:00,0,28232890,189967
OK,68,44,1046,68,2014-10-02T09:15:00,1,28233339,189967
OK,68,44,1046,68,2014-10-02T09:20:00,0,28233763,189967
OK,98,30,1046,98,2014-10-02T09:25:00,1,28234212,189967
OK,98,30,1046,98,2014-10-02T09:30:00,0,28234545,189967
OK,94,32,1046,94,2014-10-02T09:40:00,0,28235421,189967
OK,71,42,1046,71,2014-10-02T09:45:00,2,28235870,189967
OK,75,40,1046,75,2014-10-02T09:50:00,1,28236313,189967
OK,75,40,1046,75,2014-10-02T09:55:00,0,28236760,189967
OK,75,40,1046,75,2014-10-02T10:00:00,0,28237163,189967
OK,75,40,1046,75,2014-10-02T10:05:00,0,28237610,189967
OK,100,30,1046,100,2014-10-02T10:10:00,1,28238059,189967
OK,61,49,1046,61,2014-10-02T10:15:00,2,28238506,189967
OK,1148,2,1046,1148,2014-10-02T10:20:00,3,28238947,189967
OK,69,43,1046,69,2014-10-02T10:25:00,0,28239396,189967
OK,69,43,1046,69,2014-10-02T10:30:00,0,28239826,189967
OK,96,31,1046,96,2014-10-02T10:35:00,0,28240275,189967
OK,73,41,1046,73,2014-10-02T10:40:00,1,28240719,189967
OK,81,37,1046,81,2014-10-02T10:45:00,3,28241168,189967
OK,83,36,1046,83,2014-10-02T10:50:00,2,28241600,189967
OK,67,45,1046,67,2014-10-02T10:55:00,1,28242048,189967
OK,67,45,1046,67,2014-10-02T11:00:00,0,28242444,189967
OK,67,45,1046,67,2014-10-02T11:05:00,0,28242893,189967
OK,83,36,1046,83,2014-10-02T11:10:00,1,28243342,189967
OK,78,38,1046,78,2014-10-02T11:15:00,2,28243667,189967
OK,73,41,1046,73,2014-10-02T11:20:00,1,28244105,189967
OK,73,41,1046,73,2014-10-02T11:25:00,0,28244534,189967
OK,73,41,1046,73,2014-10-02T11:30:00,0,28244983,189967
OK,129,23,1046,129,2014-10-02T11:35:00,1,28245432,189967
OK,129,23,1046,129,2014-10-02T11:40:00,1,28245838,189967
OK,129,23,1046,129,2014-10-02T11:45:00,0,28246287,189967
OK,134,22,1046,134,2014-10-02T11:50:00,1,28246724,189967
OK,134,22,1046,134,2014-10-02T11:55:00,1,28247173,189967
OK,79,38,1046,79,2014-10-02T12:00:00,1,28247619,189967
OK,79,38,1046,79,2014-10-02T12:05:00,1,28248049,189967
OK,79,38,1046,79,2014-10-02T12:10:00,0,28248498,189967
OK,79,38,1046,79,2014-10-02T12:15:00,0,28248945,189967
OK,79,38,1046,79,2014-10-02T12:20:00,0,28249373,189967
OK,108,27,1046,108,2014-10-02T12:25:00,1,28249817,189967
OK,108,27,1046,108,2014-10-02T12:30:00,0,28250236,189967
OK,140,21,1046,140,2014-10-02T12:35:00,1,28250634,189967
OK,139,21,1046,139,2014-10-02T13:20:00,0,28251959,189967
OK,139,21,1046,139,2014-10-02T13:30:00,0,28252543,189967
OK,139,21,1046,139,2014-10-02T13:35:00,0,28252985,189967
OK,139,21,1046,139,2014-10-02T13:40:00,0,28253402,189967
OK,99,30,1046,99,2014-10-02T13:50:00,0,28254256,189967
OK,146,20,1046,146,2014-10-02T13:55:00,2,28254577,189967
OK,172,17,1046,172,2014-10-02T14:10:00,1,28255154,189967
OK,172,17,1046,172,2014-10-02T14:15:00,1,28255603,189967
OK,216,13,1046,216,2014-10-02T14:20:00,2,28256031,189967
OK,216,13,1046,216,2014-10-02T14:25:00,2,28256480,189967
OK,216,13,1046,216,2014-10-02T14:30:00,0,28256908,189967
OK,171,17,1046,171,2014-10-02T14:35:00,1,28257357,189967
OK,171,17,1046,171,2014-10-02T14:40:00,1,28257798,189967
OK,123,24,1046,123,2014-10-02T14:45:00,4,28258246,189967
OK,141,21,1046,141,2014-10-02T14:50:00,5,28258679,189967
OK,139,21,1046,139,2014-10-02T14:55:00,3,28259125,189967
OK,139,21,1046,139,2014-10-02T15:00:00,0,28259574,189967
OK,244,12,1046,244,2014-10-02T15:05:00,1,28260021,189967
OK,244,12,1046,244,2014-10-02T15:10:00,1,28260454,189967
OK,121,24,1046,121,2014-10-02T15:15:00,1,28260903,189967
OK,121,24,1046,121,2014-10-02T15:20:00,1,28261343,189967
OK,93,32,1046,93,2014-10-02T15:25:00,2,28261725,189967
OK,111,27,1046,111,2014-10-02T15:40:00,2,28263048,189967
OK,77,39,1046,77,2014-10-02T15:45:00,2,28263486,189967
OK,77,39,1046,77,2014-10-02T15:50:00,2,28263927,189967
OK,77,39,1046,77,2014-10-02T15:55:00,0,28264329,189967
OK,69,43,1046,69,2014-10-02T16:00:00,3,28264778,189967
OK,55,54,1046,55,2014-10-02T16:05:00,1,28265216,189967
OK,84,35,1046,84,2014-10-02T16:10:00,2,28265656,189967
OK,84,35,1046,84,2014-10-02T16:15:00,2,28266052,189967
OK,122,24,1046,122,2014-10-02T16:20:00,1,28266501,189967
OK,81,37,1046,81,2014-10-02T16:25:00,1,28266950,189967
OK,81,37,1046,81,2014-10-02T16:30:00,1,28267273,189967
OK,81,37,1046,81,2014-10-02T16:40:00,0,28268171,189967
OK,78,38,1046,78,2014-10-02T16:45:00,2,28268613,189967
OK,100,30,1046,100,2014-10-02T16:50:00,0,28269062,189967
OK,100,30,1046,100,2014-10-02T16:55:00,0,28269511,189967
OK,100,30,1046,100,2014-10-02T17:00:00,0,28269946,189967